VTD146 UWLL-UWLL

Flight info

Callsign VTD146
Flight time 0h 11m
Altitude 2500
Route RA/A025
Aircraft DA42/L-SDEFGRY/C

Departure

Time 2026-04-19 03:57
Airport Ulyanovsk Baratayevka Airport (UWLL)

Arrival

Time 2026-04-19 04:08
Airport Ulyanovsk Baratayevka Airport (UWLL)
Time Latitude Longitude Altitude Speed Heading
2026-04-19 03:43 54.27157 48.23656 399 ft 0 kts 32°
2026-04-19 03:51 54.27180 48.23646 399 ft 8 kts 298°
2026-04-19 03:51 54.27224 48.23623 399 ft 11 kts 32°
2026-04-19 03:51 54.27304 48.23709 399 ft 14 kts 33°
2026-04-19 03:51 54.27399 48.23810 399 ft 17 kts 33°
2026-04-19 03:52 54.27498 48.23919 399 ft 17 kts 31°
2026-04-19 03:52 54.27588 48.23975 399 ft 11 kts 310°
2026-04-19 03:52 54.27647 48.23820 399 ft 18 kts 302°
2026-04-19 03:52 54.27684 48.23663 399 ft 14 kts 263°
2026-04-19 03:53 54.27667 48.23513 399 ft 10 kts 258°
2026-04-19 03:53 54.27665 48.23495 399 ft 0 kts 257°
2026-04-19 03:55 54.27663 48.23483 400 ft 7 kts 257°
2026-04-19 03:55 54.27638 48.23293 402 ft 16 kts 257°
2026-04-19 03:55 54.27613 48.23198 403 ft 0 kts 214°
2026-04-19 03:56 54.27567 48.23148 403 ft 33 kts 213°
2026-04-19 03:56 54.27206 48.22757 403 ft 84 kts 211°
2026-04-19 03:56 54.26680 48.22187 642 ft 93 kts 211°
2026-04-19 03:56 54.26139 48.21579 990 ft 93 kts 212°
2026-04-19 03:57 54.25591 48.20970 1322 ft 94 kts 213°
2026-04-19 03:57 54.25075 48.20333 1715 ft 90 kts 225°
2026-04-19 03:57 54.24876 48.19328 2063 ft 96 kts 273°
2026-04-19 03:57 54.25190 48.18275 2415 ft 100 kts 295°
2026-04-19 03:58 54.25595 48.17170 2497 ft 121 kts 294°
2026-04-19 03:58 54.26032 48.15855 2496 ft 130 kts 295°
2026-04-19 03:58 54.26516 48.14516 2497 ft 136 kts 297°
2026-04-19 03:58 54.27021 48.13152 2496 ft 134 kts 297°
2026-04-19 03:59 54.27590 48.11889 2483 ft 141 kts 319°
2026-04-19 03:59 54.28551 48.11494 2500 ft 150 kts
2026-04-19 03:59 54.29522 48.12215 2494 ft 155 kts 30°
2026-04-19 03:59 54.30420 48.13206 2505 ft 153 kts 31°
2026-04-19 04:00 54.31330 48.14184 2503 ft 155 kts 31°
2026-04-19 04:00 54.32250 48.15170 2499 ft 157 kts 31°
2026-04-19 04:00 54.33159 48.16152 2491 ft 153 kts 31°
2026-04-19 04:00 54.34055 48.17122 2496 ft 152 kts 31°
2026-04-19 04:01 54.34954 48.18092 2487 ft 152 kts 31°
2026-04-19 04:01 54.36727 48.20009 2487 ft 149 kts 31°
2026-04-19 04:01 54.37609 48.20967 2488 ft 150 kts 31°
2026-04-19 04:02 54.38486 48.21917 2490 ft 149 kts 31°
2026-04-19 04:02 54.39364 48.22867 2496 ft 150 kts 31°
2026-04-19 04:02 54.40241 48.23815 2492 ft 151 kts 31°
2026-04-19 04:02 54.40925 48.25158 2498 ft 149 kts 72°
2026-04-19 04:03 54.40926 48.26837 2504 ft 141 kts 117°
2026-04-19 04:03 54.40457 48.28311 2494 ft 141 kts 127°
2026-04-19 04:03 54.39937 48.29735 2502 ft 141 kts 128°
2026-04-19 04:03 54.39411 48.31165 2502 ft 141 kts 128°
2026-04-19 04:04 54.38890 48.32586 2407 ft 144 kts 128°
2026-04-19 04:04 54.38172 48.33679 2235 ft 136 kts 167°
2026-04-19 04:04 54.37285 48.33560 2110 ft 128 kts 205°
2026-04-19 04:04 54.36520 48.32907 2091 ft 118 kts 210°
2026-04-19 04:05 54.35854 48.32130 2032 ft 115 kts 218°
2026-04-19 04:05 54.35211 48.31357 1949 ft 109 kts 211°
2026-04-19 04:05 54.34580 48.30693 1846 ft 104 kts 212°
2026-04-19 04:05 54.33969 48.30038 1731 ft 103 kts 210°
2026-04-19 04:06 54.33362 48.29412 1625 ft 104 kts 212°
2026-04-19 04:06 54.32761 48.28723 1483 ft 104 kts 215°
2026-04-19 04:06 54.32151 48.28055 1333 ft 104 kts 211°
2026-04-19 04:06 54.31530 48.27405 1168 ft 105 kts 212°
2026-04-19 04:07 54.30922 48.26744 1048 ft 102 kts 212°
2026-04-19 04:07 54.30318 48.26101 927 ft 101 kts 210°
2026-04-19 04:07 54.29721 48.25473 790 ft 101 kts 211°
2026-04-19 04:07 54.29128 48.24829 632 ft 101 kts 212°
2026-04-19 04:08 54.28549 48.24203 494 ft 93 kts 212°
2026-04-19 04:08 54.28033 48.23652 403 ft 81 kts 211°
2026-04-19 04:08 54.27758 48.23352 401 ft 0 kts 211°
2026-04-19 04:09 54.27757 48.23352 401 ft 3 kts 210°
2026-04-19 04:09 54.27539 48.23118 403 ft 66 kts 212°
2026-04-19 04:09 54.27067 48.22614 514 ft 86 kts 210°
2026-04-19 04:09 54.26545 48.22054 793 ft 90 kts 208°
2026-04-19 04:10 54.25963 48.21463 1006 ft 103 kts 209°
2026-04-19 04:10 54.25368 48.20869 1417 ft 96 kts 211°
2026-04-19 04:10 54.24855 48.20198 1813 ft 93 kts 233°
2026-04-19 04:10 54.24732 48.19098 2172 ft 100 kts 275°
2026-04-19 04:11 54.25045 48.18021 2536 ft 103 kts 293°
2026-04-19 04:11 54.25467 48.16815 2505 ft 127 kts 295°
2026-04-19 04:11 54.25935 48.15516 2505 ft 129 kts 296°
2026-04-19 04:11 54.26411 48.14187 2496 ft 135 kts 296°
2026-04-19 04:12 54.26906 48.12804 2505 ft 136 kts 296°
2026-04-19 04:12 54.27587 48.11648 2494 ft 145 kts 332°
2026-04-19 04:12 54.28603 48.11595 2498 ft 154 kts 17°
2026-04-19 04:12 54.29553 48.12473 2485 ft 156 kts 30°
2026-04-19 04:13 54.30459 48.13440 2500 ft 156 kts 31°
2026-04-19 04:13 54.31385 48.14435 2495 ft 158 kts 31°
2026-04-19 04:13 54.32320 48.15447 2490 ft 159 kts 31°
2026-04-19 04:13 54.33236 48.16445 2497 ft 154 kts 31°
2026-04-19 04:14 54.34145 48.17433 2495 ft 155 kts 31°
2026-04-19 04:14 54.35062 48.18428 2495 ft 155 kts 31°
2026-04-19 04:14 54.35968 48.19418 2489 ft 155 kts 31°
2026-04-19 04:14 54.36871 48.20406 2494 ft 154 kts 31°
2026-04-19 04:15 54.37771 48.21393 2486 ft 153 kts 31°
2026-04-19 04:15 54.38664 48.22366 2488 ft 151 kts 31°
2026-04-19 04:15 54.39554 48.23332 2497 ft 152 kts 31°
2026-04-19 04:15 54.40458 48.24316 2487 ft 154 kts 31°
2026-04-19 04:16 54.41121 48.25716 2494 ft 154 kts 74°
2026-04-19 04:16 54.41089 48.27461 2492 ft 144 kts 119°
2026-04-19 04:16 54.40612 48.28943 2505 ft 142 kts 127°
2026-04-19 04:16 54.40091 48.30376 2505 ft 142 kts 129°
2026-04-19 04:17 54.39550 48.31812 2502 ft 142 kts 129°
2026-04-19 04:17 54.39014 48.33222 2375 ft 142 kts 133°
2026-04-19 04:17 54.38222 48.34038 2216 ft 130 kts 179°
2026-04-19 04:17 54.37403 48.33682 2109 ft 121 kts 211°
2026-04-19 04:18 54.36719 48.32944 2099 ft 112 kts 214°
2026-04-19 04:18 54.36058 48.32251 2056 ft 108 kts 212°
2026-04-19 04:18 54.35428 48.31582 1962 ft 107 kts 213°
2026-04-19 04:18 54.34812 48.30927 1879 ft 101 kts 211°
2026-04-19 04:19 54.34220 48.30314 1761 ft 99 kts 211°
2026-04-19 04:19 54.33643 48.29697 1675 ft 97 kts 213°
2026-04-19 04:19 54.33075 48.29066 1547 ft 97 kts 213°
2026-04-19 04:19 54.32507 48.28443 1402 ft 98 kts 210°
2026-04-19 04:20 54.31921 48.27839 1282 ft 98 kts 210°
2026-04-19 04:20 54.31349 48.27231 1187 ft 96 kts 211°
2026-04-19 04:20 54.30777 48.26614 1040 ft 96 kts 213°
2026-04-19 04:20 54.30223 48.26003 921 ft 95 kts 210°
2026-04-19 04:21 54.29659 48.25410 770 ft 94 kts 210°
2026-04-19 04:21 54.29116 48.24814 639 ft 92 kts 210°
2026-04-19 04:21 54.28578 48.24240 517 ft 91 kts 210°
2026-04-19 04:21 54.28068 48.23688 404 ft 79 kts 210°
2026-04-19 04:22 54.27797 48.23396 401 ft 0 kts 214°
2026-04-19 04:22 54.27766 48.23361 401 ft 27 kts 212°
2026-04-19 04:22 54.27434 48.23004 403 ft 80 kts 211°
2026-04-19 04:23 54.26929 48.22445 643 ft 89 kts 211°
2026-04-19 04:23 54.26406 48.21860 982 ft 90 kts 211°
2026-04-19 04:23 54.25870 48.21282 1299 ft 91 kts 211°
2026-04-19 04:23 54.25352 48.20752 1696 ft 85 kts 212°
2026-04-19 04:24 54.25013 48.19927 2039 ft 91 kts 257°
2026-04-19 04:24 54.25200 48.18862 2394 ft 100 kts 295°
2026-04-19 04:24 54.25599 48.17799 2487 ft 122 kts 293°
2026-04-19 04:24 54.26046 48.16489 2495 ft 129 kts 294°
2026-04-19 04:25 54.26508 48.15172 2505 ft 133 kts 295°
2026-04-19 04:25 54.26993 48.13819 2496 ft 133 kts 295°
2026-04-19 04:25 54.27510 48.12495 2495 ft 140 kts 309°
2026-04-19 04:25 54.28430 48.11843 2492 ft 154 kts 354°
2026-04-19 04:26 54.29458 48.12406 2499 ft 159 kts 27°
2026-04-19 04:26 54.30394 48.13407 2511 ft 159 kts 32°
2026-04-19 04:26 54.31328 48.14444 2502 ft 160 kts 31°
2026-04-19 04:26 54.32275 48.15458 2489 ft 160 kts 30°
2026-04-19 04:27 54.33211 48.16442 2500 ft 156 kts 30°
2026-04-19 04:27 54.34133 48.17420 2503 ft 157 kts 30°
2026-04-19 04:27 54.35064 48.18415 2496 ft 157 kts 30°
2026-04-19 04:27 54.35991 48.19408 2494 ft 157 kts 30°
2026-04-19 04:28 54.36915 48.20399 2495 ft 156 kts 30°
2026-04-19 04:28 54.37836 48.21377 2490 ft 155 kts 30°
2026-04-19 04:28 54.38747 48.22340 2488 ft 153 kts 30°
2026-04-19 04:28 54.39658 48.23303 2497 ft 156 kts 30°
2026-04-19 04:29 54.40576 48.24322 2483 ft 159 kts 40°
2026-04-19 04:29 54.41092 48.25935 2498 ft 155 kts 85°
2026-04-19 04:29 54.40888 48.27648 2514 ft 145 kts 124°
2026-04-19 04:29 54.40376 48.29134 2515 ft 144 kts 128°
2026-04-19 04:30 54.39836 48.30598 2518 ft 145 kts 129°
2026-04-19 04:30 54.39300 48.32046 2494 ft 143 kts 129°
2026-04-19 04:30 54.38730 48.33463 2332 ft 143 kts 144°
2026-04-19 04:30 54.37868 48.33987 2175 ft 127 kts 191°
2026-04-19 04:31 54.37098 48.33406 2102 ft 117 kts 216°
2026-04-19 04:31 54.36448 48.32664 2098 ft 108 kts 215°
2026-04-19 04:31 54.35819 48.31992 2023 ft 105 kts 213°
2026-04-19 04:31 54.35230 48.31371 1941 ft 94 kts 211°
2026-04-19 04:32 54.34676 48.30780 1876 ft 89 kts 211°
2026-04-19 04:32 54.34151 48.30234 1782 ft 87 kts 211°
2026-04-19 04:32 54.33637 48.29698 1726 ft 86 kts 212°
2026-04-19 04:32 54.33139 48.29116 1601 ft 86 kts 211°
2026-04-19 04:33 54.32627 48.28576 1459 ft 87 kts 209°
2026-04-19 04:33 54.32105 48.28049 1335 ft 88 kts 213°
2026-04-19 04:33 54.31589 48.27471 1223 ft 90 kts 210°
2026-04-19 04:33 54.31058 48.26911 1103 ft 90 kts 211°
2026-04-19 04:34 54.30530 48.26345 972 ft 88 kts 212°
2026-04-19 04:34 54.30013 48.25776 851 ft 89 kts 209°
2026-04-19 04:34 54.29490 48.25225 749 ft 88 kts 208°
2026-04-19 04:34 54.28965 48.24660 624 ft 89 kts 208°
2026-04-19 04:35 54.28446 48.24095 483 ft 87 kts 208°
2026-04-19 04:35 54.27963 48.23577 404 ft 77 kts 207°
2026-04-19 04:35 54.27622 48.23206 403 ft 21 kts 211°
2026-04-19 04:35 54.27608 48.23192 403 ft 0 kts 213°
2026-04-19 04:36 54.27581 48.23164 403 ft 26 kts 210°
2026-04-19 04:36 54.27253 48.22812 400 ft 81 kts 212°
2026-04-19 04:36 54.26756 48.22263 674 ft 86 kts 210°
2026-04-19 04:36 54.26220 48.21696 961 ft 95 kts 210°
2026-04-19 04:37 54.25836 48.21314 1173 ft 95 kts 210°
2026-04-19 04:37 54.25299 48.20748 1595 ft 86 kts 212°
2026-04-19 04:37 54.24909 48.20011 1937 ft 89 kts 245°
2026-04-19 04:37 54.24997 48.18931 2240 ft 104 kts 293°
2026-04-19 04:38 54.25386 48.17890 2493 ft 111 kts 293°
2026-04-19 04:38 54.25827 48.16669 2497 ft 125 kts 294°
2026-04-19 04:38 54.26281 48.15394 2503 ft 127 kts 294°
2026-04-19 04:38 54.26762 48.14079 2492 ft 132 kts 295°
2026-04-19 04:39 54.27253 48.12751 2501 ft 133 kts 296°
2026-04-19 04:39 54.28045 48.11817 2503 ft 149 kts 340°
2026-04-19 04:39 54.29089 48.12051 2509 ft 158 kts 23°
2026-04-19 04:39 54.30038 48.13008 2501 ft 158 kts 31°
2026-04-19 04:40 54.30951 48.14059 2501 ft 159 kts 32°
2026-04-19 04:40 54.31876 48.15086 2500 ft 159 kts 30°
2026-04-19 04:40 54.32801 48.16087 2490 ft 155 kts 30°
2026-04-19 04:40 54.33704 48.17071 2501 ft 154 kts 30°
2026-04-19 04:41 54.34608 48.18040 2498 ft 156 kts 30°
2026-04-19 04:41 54.35528 48.19016 2497 ft 155 kts 30°
2026-04-19 04:41 54.36449 48.19993 2494 ft 155 kts 30°
2026-04-19 04:41 54.37366 48.20966 2490 ft 155 kts 30°
2026-04-19 04:42 54.38271 48.21938 2492 ft 152 kts 30°
2026-04-19 04:42 54.39166 48.22910 2504 ft 153 kts 30°
2026-04-19 04:42 54.40084 48.23903 2503 ft 158 kts 30°
2026-04-19 04:42 54.40915 48.25116 2485 ft 158 kts 59°
2026-04-19 04:43 54.41141 48.26885 2489 ft 149 kts 105°
2026-04-19 04:43 54.40753 48.28449 2505 ft 141 kts 128°
2026-04-19 04:43 54.40245 48.29883 2504 ft 140 kts 130°
2026-04-19 04:43 54.39719 48.31310 2498 ft 141 kts 130°
2026-04-19 04:44 54.39205 48.32709 2426 ft 138 kts 130°
2026-04-19 04:44 54.38535 48.33769 2267 ft 131 kts 167°
2026-04-19 04:44 54.37695 48.33671 2130 ft 120 kts 208°
2026-04-19 04:44 54.36980 48.33027 2095 ft 112 kts 211°
2026-04-19 04:45 54.36294 48.32407 2073 ft 112 kts 209°
2026-04-19 04:45 54.35627 48.31801 2006 ft 105 kts 212°
2026-04-19 04:45 54.35026 48.31176 1926 ft 96 kts 214°
2026-04-19 04:45 54.34482 48.30568 1873 ft 85 kts 211°
2026-04-19 04:46 54.33978 48.30060 1741 ft 84 kts 212°
2026-04-19 04:46 54.33495 48.29528 1647 ft 81 kts 214°
2026-04-19 04:46 54.33009 48.29017 1512 ft 83 kts 213°
2026-04-19 04:46 54.32518 48.28478 1394 ft 84 kts 211°
2026-04-19 04:47 54.32018 48.27943 1276 ft 87 kts 214°
2026-04-19 04:47 54.31509 48.27389 1185 ft 87 kts 211°
2026-04-19 04:47 54.30981 48.26833 1089 ft 90 kts 209°
2026-04-19 04:47 54.30453 48.26271 995 ft 89 kts 211°
2026-04-19 04:48 54.29927 48.25691 879 ft 91 kts 211°
2026-04-19 04:48 54.29394 48.25119 733 ft 91 kts 210°
2026-04-19 04:48 54.28866 48.24552 605 ft 91 kts 208°
2026-04-19 04:48 54.28320 48.23960 760 ft 92 kts 213°
2026-04-19 04:49 54.27775 48.23342 1018 ft 99 kts 211°
2026-04-19 04:49 54.27201 48.22748 1373 ft 92 kts 212°
2026-04-19 04:49 54.26679 48.22178 1794 ft 88 kts 213°
2026-04-19 04:49 54.26159 48.21626 2193 ft 88 kts 214°
2026-04-19 04:50 54.25615 48.21077 2501 ft 98 kts 213°
2026-04-19 04:50 54.24990 48.20417 2530 ft 111 kts 223°
2026-04-19 04:50 54.24679 48.19202 2530 ft 121 kts 265°
2026-04-19 04:50 54.24959 48.17787 2497 ft 133 kts 296°
2026-04-19 04:51 54.25460 48.16467 2496 ft 130 kts 294°
2026-04-19 04:51 54.25939 48.15156 2496 ft 130 kts 294°
2026-04-19 04:51 54.26421 48.13816 2492 ft 136 kts 294°
2026-04-19 04:51 54.26921 48.12420 2504 ft 139 kts 295°
2026-04-19 04:52 54.27722 48.11417 2503 ft 153 kts 339°
2026-04-19 04:52 54.28793 48.11616 2509 ft 163 kts 23°
2026-04-19 04:52 54.29747 48.12682 2502 ft 163 kts 33°
2026-04-19 04:52 54.30688 48.13747 2497 ft 163 kts 31°
2026-04-19 04:53 54.31642 48.14785 2497 ft 162 kts 30°
2026-04-19 04:53 54.32573 48.15803 2485 ft 159 kts 30°
2026-04-19 04:53 54.33495 48.16818 2489 ft 157 kts 30°
2026-04-19 04:53 54.34422 48.17813 2495 ft 158 kts 30°
2026-04-19 04:54 54.35353 48.18807 2491 ft 157 kts 30°
2026-04-19 04:54 54.36282 48.19800 2489 ft 157 kts 30°
2026-04-19 04:54 54.37199 48.20789 2488 ft 155 kts 30°
2026-04-19 04:54 54.38105 48.21782 2488 ft 154 kts 30°
2026-04-19 04:55 54.39015 48.22758 2492 ft 155 kts 29°
2026-04-19 04:55 54.39946 48.23739 2494 ft 159 kts 29°
2026-04-19 04:55 54.40833 48.24868 2485 ft 159 kts 53°
2026-04-19 04:55 54.41179 48.26596 2494 ft 151 kts 98°
2026-04-19 04:56 54.40853 48.28197 2515 ft 139 kts 129°
2026-04-19 04:56 54.40342 48.29604 2512 ft 139 kts 131°
2026-04-19 04:56 54.39820 48.31006 2519 ft 141 kts 130°
2026-04-19 04:56 54.39300 48.32399 2476 ft 137 kts 131°
2026-04-19 04:57 54.38696 48.33640 2308 ft 133 kts 158°
2026-04-19 04:57 54.37859 48.33832 2159 ft 118 kts 202°
2026-04-19 04:57 54.37119 48.33291 2100 ft 112 kts 209°
2026-04-19 04:57 54.36444 48.32735 2075 ft 101 kts 211°
2026-04-19 04:58 54.35877 48.32179 2026 ft 87 kts 218°
2026-04-19 04:58 54.35383 48.31598 1895 ft 83 kts 216°
2026-04-19 04:58 54.34926 48.31118 1824 ft 79 kts 212°
2026-04-19 04:58 54.34459 48.30637 1750 ft 79 kts 213°
2026-04-19 04:59 54.34003 48.30116 1672 ft 79 kts 212°
2026-04-19 04:59 54.33537 48.29619 1619 ft 78 kts 214°
2026-04-19 04:59 54.33074 48.29115 1507 ft 81 kts 214°
2026-04-19 04:59 54.32613 48.28585 1372 ft 78 kts 213°
2026-04-19 05:00 54.32136 48.28092 1259 ft 83 kts 210°
2026-04-19 05:00 54.31643 48.27540 1184 ft 87 kts 212°
2026-04-19 05:00 54.31122 48.26986 1091 ft 88 kts 210°
2026-04-19 05:00 54.30599 48.26431 997 ft 88 kts 213°
2026-04-19 05:01 54.30089 48.25858 877 ft 88 kts 212°
2026-04-19 05:01 54.29566 48.25307 775 ft 88 kts 210°
2026-04-19 05:01 54.29037 48.24726 617 ft 90 kts 212°
2026-04-19 05:01 54.28521 48.24173 491 ft 88 kts 210°
2026-04-19 05:02 54.28029 48.23645 404 ft 77 kts 209°
2026-04-19 05:02 54.27732 48.23328 401 ft 21 kts 211°
2026-04-19 05:02 54.27644 48.23308 401 ft 15 kts 102°
2026-04-19 05:02 54.27659 48.23458 400 ft 13 kts 76°
2026-04-19 05:03 54.27666 48.23506 399 ft 0 kts 78°
2026-04-19 05:03 54.27666 48.23509 399 ft 3 kts 79°
2026-04-19 05:03 54.27682 48.23642 399 ft 16 kts 85°
2026-04-19 05:03 54.27648 48.23815 399 ft 17 kts 125°
2026-04-19 05:04 54.27589 48.23974 399 ft 13 kts 134°
2026-04-19 05:04 54.27516 48.23937 399 ft 18 kts 213°
2026-04-19 05:04 54.27420 48.23833 399 ft 15 kts 212°
2026-04-19 05:04 54.27319 48.23725 399 ft 17 kts 212°
2026-04-19 05:05 54.27224 48.23623 399 ft 15 kts 212°
2026-04-19 05:05 54.27162 48.23580 399 ft 6 kts 123°
2026-04-19 05:05 54.27148 48.23645 399 ft 3 kts 31°
2026-04-19 05:05 54.27157 48.23656 399 ft 0 kts 33°